This is the latest recevied weather packets stored in our database for station/object K3JSE-4. If no packets are shown the sender has not sent any weather packets the latest 10 day(s).
| Time | Temp. | Humidity | Pressure | Rain* | Wind** | Luminosity | Snow |
|---|---|---|---|---|---|---|---|
| 1777581644 | 16.11° C | 54% | 1008.1 hPa | 0 mm | - | - | - |
| 1777581344 | 16.67° C | 52% | 1008 hPa | 0 mm | - | - | - |
| 1777581044 | 16.11° C | 58% | 1008.2 hPa | 0 mm | - | - | - |
| 1777580744 | 16.11° C | 54% | 1008.1 hPa | 0 mm | - | - | - |
| 1777580444 | 16.11° C | 53% | 1008.1 hPa | 0 mm | - | - | - |
| 1777580144 | 16.11° C | 55% | 1008 hPa | 0 mm | - | - | - |
| 1777579844 | 17.22° C | 50% | 1008.1 hPa | 0 mm | - | - | - |
| 1777579544 | 17.78° C | 52% | 1008 hPa | 0 mm | - | - | - |
| 1777579244 | 17.22° C | 51% | 1007.9 hPa | 0 mm | - | - | - |
| 1777578944 | 17.78° C | 52% | 1008 hPa | 0 mm | - | - | - |
| 1777578644 | 18.33° C | 50% | 1007.8 hPa | 0 mm | - | - | - |
| 1777578344 | 17.78° C | 56% | 1007.9 hPa | 0 mm | - | - | - |
| 1777578044 | 17.22° C | 52% | 1008 hPa | 0 mm | - | - | - |
| 1777577744 | 16.67° C | 54% | 1008 hPa | 0 mm | - | - | - |
| 1777577444 | 16.67° C | 52% | 1008 hPa | 0 mm | - | - | - |
| 1777577144 | 16.67° C | 51% | 1008 hPa | 0 mm | - | - | - |
| 1777576844 | 16.11° C | 58% | 1007.9 hPa | 0 mm | - | - | - |
| 1777576544 | 16.11° C | 58% | 1008 hPa | 0 mm | - | - | - |
| 1777576244 | 16.11° C | 55% | 1008.1 hPa | 0 mm | - | - | - |
| 1777575944 | 16.11° C | 57% | 1008 hPa | 0 mm | - | - | - |
| 1777575644 | 15.56° C | 56% | 1007.9 hPa | 0 mm | - | - | - |
| 1777575344 | 15° C | 56% | 1008.1 hPa | 0 mm | - | - | - |
| 1777575044 | 15.56° C | 57% | 1008.2 hPa | 0 mm | - | - | - |
| 1777574744 | 15.56° C | 58% | 1008.1 hPa | 0 mm | - | - | - |
| 1777574444 | 15° C | 58% | 1008.3 hPa | 0 mm | - | - | - |
* Rain latest hour (hover to see other rain measurements)
** Current wind speed in m/s (hover to see current wind gust speed)